Weather History for KGUC - March, 2013

Change the Weather History Date:

Saturday, March 23, 2013

  Actual Average Record
Temperature  
Mean Temperature 20 °F -  
Max Temperature 28 °F 46 °F 66 °F (2012)
Min Temperature 10 °F 19 °F 0 °F (2008)
Degree Days  
Heating Degree Days 45    
Moisture  
Dew Point 6 °F    
Average Humidity 57    
Maximum Humidity 86    
Minimum Humidity 30    
Precipitation  
Precipitation 0.00 in - - ()
Sea Level Pressure  
Sea Level Pressure 29.87 in    
Wind  
Wind Speed 10 mph (WSW)    
Max Wind Speed 21 mph    
Max Gust Speed 25 mph    
Visibility 10 miles    
Events      
Averages and records for this station are not official NWS values.
T = Trace of Precipitation, MM = Missing Value Source: NWS Daily Summary

Daily Weather History Graph

Daily Weather History Graph

Search for Another Location

Airport or City:

Trip Planner

Search our weather history database for the weather conditions in past years. The results will help you decide how hot, cold, wet, or windy it might be!

Date:

Astronomy

Mar. 23, 2013 Rise Set
Actual Time 7:06 AM MDT 7:22 PM MDT
Civil Twilight 6:39 AM MDT 7:49 PM MDT
Nautical Twilight 6:08 AM MDT 8:20 PM MDT
Astronomical Twilight 5:36 AM MDT 8:52 PM MDT
Moon 3:54 PM MDT (3/23) 4:41 AM MDT (3/23)
Length of Visible Light 13h 09m
Length of Day
12h 16m
Waxing Gibbous, 85% of the Moon is Illuminated
Mar 23
Waxing Gibbous
Mar 27
Full
Apr 2
Last Quarter
Apr 10
New
Apr 18
First Quarter

Hourly Weather History & Observations

Time (MDT) Temp. Windchill Dew Point Humidity Pressure Visibility Wind Dir Wind Speed Gust Speed Precip Events Conditions
12:15 AM 28.4 °F 21.2 °F 8.6 °F 43% 29.78 in 10.0 mi WSW 6.9 mph - N/A   Overcast
12:55 AM 26.6 °F 16.2 °F 10.4 °F 51% 29.78 in 10.0 mi WSW 11.5 mph 18.4 mph N/A   Overcast
1:55 AM 23.0 °F 10.6 °F 12.2 °F 63% 29.77 in 10.0 mi WSW 13.8 mph 20.7 mph N/A   Partly Cloudy
2:15 AM 21.2 °F 8.3 °F 10.4 °F 63% 29.77 in 10.0 mi SW 13.8 mph 18.4 mph N/A   Partly Cloudy
2:35 AM 21.2 °F 8.3 °F 10.4 °F 63% 29.78 in 10.0 mi SW 13.8 mph 18.4 mph N/A   Mostly Cloudy
2:55 AM 21.2 °F 8.9 °F 10.4 °F 63% 29.77 in 10.0 mi SSW 12.7 mph 19.6 mph N/A   Mostly Cloudy
3:15 AM 21.2 °F 8.3 °F 10.4 °F 63% 29.77 in 10.0 mi SW 13.8 mph - N/A   Overcast
3:35 AM 21.2 °F 7.3 °F 10.4 °F 63% 29.77 in 10.0 mi SW 16.1 mph 20.7 mph N/A   Overcast
3:55 AM 21.2 °F 7.8 °F 10.4 °F 63% 29.76 in 10.0 mi SW 15.0 mph 24.2 mph N/A   Overcast
4:15 AM 19.4 °F 6.0 °F 10.4 °F 68% 29.76 in 10.0 mi SW 13.8 mph 23.0 mph N/A   Overcast
4:35 AM 19.4 °F 6.6 °F 10.4 °F 68% 29.75 in 10.0 mi SW 12.7 mph 19.6 mph N/A   Overcast
4:55 AM 19.4 °F 5.5 °F 10.4 °F 68% 29.75 in 10.0 mi SW 15.0 mph - N/A   Overcast
5:15 AM 19.4 °F 6.6 °F 8.6 °F 63% 29.76 in 10.0 mi SW 12.7 mph 20.7 mph N/A   Overcast
5:55 AM 19.4 °F 7.9 °F 10.4 °F 68% 29.76 in 10.0 mi SW 10.4 mph 16.1 mph N/A   Mostly Cloudy
6:15 AM 17.6 °F 6.4 °F 10.4 °F 73% 29.76 in 10.0 mi SW 9.2 mph - N/A   Scattered Clouds
6:35 AM 17.6 °F 7.3 °F 8.6 °F 68% 29.76 in 10.0 mi SW 8.1 mph - N/A   Mostly Cloudy
6:55 AM 17.6 °F 5.7 °F 8.6 °F 68% 29.76 in 10.0 mi SW 10.4 mph - N/A   Partly Cloudy
7:15 AM 17.6 °F 5.7 °F 3.2 °F 53% 29.77 in 10.0 mi SW 10.4 mph - N/A   Clear
7:35 AM 17.6 °F 7.3 °F 6.8 °F 63% 29.77 in 10.0 mi WSW 8.1 mph - N/A   Clear
7:55 AM 17.6 °F 10.7 °F 8.6 °F 68% 29.78 in 10.0 mi WSW 4.6 mph - N/A   Scattered Clouds
8:15 AM 17.6 °F 7.3 °F 10.4 °F 73% 29.79 in 10.0 mi WSW 8.1 mph - N/A   Overcast
8:35 AM 17.6 °F 9.3 °F 10.4 °F 73% 29.79 in 10.0 mi West 5.8 mph - N/A   Overcast
8:55 AM 15.8 °F 6.1 °F 6.8 °F 68% 29.80 in 10.0 mi SW 6.9 mph - N/A   Overcast
9:15 AM 17.6 °F 5.7 °F 3.2 °F 53% 29.80 in 10.0 mi WSW 10.4 mph - N/A   Overcast
9:35 AM 17.6 °F 10.7 °F 1.4 °F 49% 29.81 in 10.0 mi NE 4.6 mph - N/A   Overcast
9:55 AM 17.6 °F 5.7 °F 1.4 °F 49% 29.81 in 10.0 mi SW 10.4 mph 16.1 mph N/A   Overcast
10:15 AM 19.4 °F 8.6 °F 1.4 °F 46% 29.82 in 10.0 mi WSW 9.2 mph 20.7 mph N/A   Overcast
10:55 AM 19.4 °F 6.6 °F -0.4 °F 42% 29.83 in 10.0 mi West 12.7 mph 23.0 mph N/A   Overcast
11:15 AM 19.4 °F 4.5 °F 1.4 °F 46% 29.83 in 10.0 mi WSW 17.3 mph 23.0 mph N/A   Overcast
11:35 AM 17.6 °F 2.7 °F 6.8 °F 63% 29.84 in 10.0 mi WSW 16.1 mph 21.9 mph N/A   Overcast
12:15 PM 19.4 °F 7.9 °F 3.2 °F 49% 29.85 in 10.0 mi SW 10.4 mph 17.3 mph N/A   Overcast
12:35 PM 21.2 °F 9.5 °F 3.2 °F 46% 29.85 in 10.0 mi WSW 11.5 mph 16.1 mph N/A   Overcast
12:55 PM 19.4 °F - 5.0 °F 54% 29.86 in 10.0 mi Calm Calm - N/A   Overcast
1:15 PM 21.2 °F 10.1 °F -5.8 °F 30% 29.86 in 10.0 mi North 10.4 mph - N/A   Overcast
1:35 PM 21.2 °F 9.5 °F -2.2 °F 36% 29.87 in 10.0 mi WSW 11.5 mph 19.6 mph N/A   Overcast
1:55 PM 21.2 °F 6.8 °F 3.2 °F 46% 29.87 in 10.0 mi WSW 17.3 mph 25.3 mph N/A   Mostly Cloudy
2:15 PM 19.4 °F 5.0 °F 15.8 °F 86% 29.87 in 5.0 mi SW 16.1 mph 23.0 mph N/A   Overcast
2:35 PM 21.2 °F 5.6 °F 6.8 °F 54% 29.88 in 10.0 mi WSW 20.7 mph - N/A   Overcast
2:55 PM 21.2 °F 7.8 °F 6.8 °F 54% 29.88 in 10.0 mi SW 15.0 mph 19.6 mph N/A   Overcast
3:15 PM 21.2 °F 7.3 °F 8.6 °F 58% 29.88 in 10.0 mi WSW 16.1 mph 20.7 mph N/A   Overcast
3:35 PM 21.2 °F 11.7 °F 5.0 °F 50% 29.89 in 10.0 mi NW 8.1 mph 24.2 mph N/A   Overcast
4:15 PM 23.0 °F 12.4 °F 3.2 °F 43% 29.90 in 10.0 mi West 10.4 mph 18.4 mph N/A   Overcast
4:35 PM 24.8 °F 14.6 °F 1.4 °F 36% 29.91 in 10.0 mi WSW 10.4 mph - N/A   Mostly Cloudy
4:55 PM 23.0 °F 11.7 °F 10.4 °F 59% 29.91 in 10.0 mi NNW 11.5 mph 21.9 mph N/A   Mostly Cloudy
5:15 PM 21.2 °F 10.1 °F 1.4 °F 42% 29.91 in 10.0 mi NNW 10.4 mph - N/A   Overcast
5:35 PM 24.8 °F 12.9 °F 5.0 °F 43% 29.92 in 10.0 mi West 13.8 mph 18.4 mph N/A   Overcast
6:15 PM 23.0 °F 11.1 °F 3.2 °F 43% 29.95 in 10.0 mi WNW 12.7 mph 17.3 mph N/A   Mostly Cloudy
6:35 PM 21.2 °F 10.9 °F 6.8 °F 54% 29.96 in 10.0 mi West 9.2 mph - N/A   Scattered Clouds
6:55 PM 21.2 °F 9.5 °F 3.2 °F 46% 29.97 in 10.0 mi West 11.5 mph 17.3 mph N/A   Mostly Cloudy
7:15 PM 19.4 °F 10.4 °F 5.0 °F 54% 29.98 in 10.0 mi WSW 6.9 mph - N/A   Scattered Clouds
7:35 PM 19.4 °F 8.6 °F 5.0 °F 54% 29.99 in 10.0 mi WSW 9.2 mph - N/A   Clear
7:55 PM 19.4 °F 11.5 °F 5.0 °F 54% 29.99 in 10.0 mi NW 5.8 mph - N/A   Clear
8:15 PM 17.6 °F - 6.8 °F 63% 30.00 in 10.0 mi Calm Calm - N/A   Clear
8:35 PM 17.6 °F 7.3 °F 3.2 °F 53% 30.01 in 10.0 mi SW 8.1 mph - N/A   Clear
8:55 PM 17.6 °F 6.4 °F 6.8 °F 63% 30.02 in 10.0 mi WSW 9.2 mph - N/A   Partly Cloudy
9:15 PM 17.6 °F 8.2 °F 6.8 °F 63% 30.03 in 10.0 mi SW 6.9 mph - N/A   Partly Cloudy
9:35 PM 17.6 °F 10.7 °F 8.6 °F 68% 30.04 in 10.0 mi North 4.6 mph - N/A   Clear
9:55 PM 15.8 °F 10.2 °F 6.8 °F 68% 30.05 in 10.0 mi NNW 3.5 mph - N/A   Clear
10:15 PM 15.8 °F 10.2 °F 5.0 °F 62% 30.06 in 10.0 mi NNW 3.5 mph - N/A   Clear
10:35 PM 15.8 °F 10.2 °F 3.2 °F 58% 30.06 in 10.0 mi North 3.5 mph - N/A   Clear
10:55 PM 12.2 °F - 1.4 °F 62% 30.06 in 10.0 mi Calm Calm - N/A   Clear
11:15 PM 12.2 °F 6.1 °F 1.4 °F 62% 30.07 in 10.0 mi North 3.5 mph - N/A   Clear
11:35 PM 12.2 °F 1.7 °F 1.4 °F 62% 30.06 in 10.0 mi NNW 6.9 mph - N/A   Clear
11:55 PM 10.4 °F 0.8 °F 1.4 °F 67% 30.06 in 10.0 mi NNW 5.8 mph - N/A   Clear